• In Denmark
  • List of Countries
  • For 7 days
  • Water Temperature
  • Satellite Maps
  • Weather Map
  • Weather Widgets
  • user-avatar
    Login

    Hourly Weather Melbourne

    Today, 19 August, Saturday

    Time Temperature Precipitation Wind Pressure Humidity
    00:00 +5°C° 0.2 mm 4 mps 763 mmHg 88%
    01:00 +5°C° 0.2 mm 4 mps 764 mmHg 88%
    02:00 +5°C° 0.2 mm 4 mps 764 mmHg 89%
    03:00 +5°C° 0.2 mm 3 mps 764 mmHg 89%
    04:00 +4°C° 0 mm 4 mps 765 mmHg 90%
    05:00 +4°C° 0.1 mm 3 mps 765 mmHg 91%
    06:00 +4°C° 0.1 mm 3 mps 765 mmHg 91%
    07:00 +4°C° 0.1 mm 3 mps 766 mmHg 91%
    08:00 +7°C° 0.1 mm 3 mps 766 mmHg 87%
    09:00 +8°C° 0.1 mm 3 mps 767 mmHg 83%
    10:00 +8°C° 0.1 mm 4 mps 767 mmHg 78%
    11:00 +10°C° 0.1 mm 4 mps 767 mmHg 73%
    12:00 +11°C° 0.1 mm 4 mps 767 mmHg 67%
    13:00 +11°C° 0.1 mm 4 mps 767 mmHg 62%
    14:00 +11°C° 0.1 mm 4 mps 767 mmHg 62%
    15:00 +11°C° 0.1 mm 4 mps 767 mmHg 62%
    16:00 +11°C° 0.1 mm 3 mps 767 mmHg 63%
    17:00 +9°C° 0 mm 3 mps 768 mmHg 69%
    18:00 +8°C° 0 mm 2 mps 768 mmHg 76%
    19:00 +6°C° 0 mm 2 mps 768 mmHg 83%
    20:00 +6°C° 0 mm 2 mps 769 mmHg 84%
    21:00 +5°C° 0 mm 2 mps 769 mmHg 85%
    22:00 +6°C° 0 mm 1 mps 769 mmHg 86%
    23:00 +5°C° 0 mm 2 mps 769 mmHg 87%

    Tomorrow, 20 August, Sunday

    Time Temperature Precipitation Wind Pressure Humidity
    00:00 +5°C° 0 mm 2 mps 769 mmHg 88%
    01:00 +4°C° 0 mm 2 mps 769 mmHg 88%
    02:00 +4°C° 0 mm 2 mps 769 mmHg 89%
    03:00 +4°C° 0 mm 2 mps 769 mmHg 90%
    04:00 +4°C° 0 mm 2 mps 769 mmHg 90%
    05:00 +3°C° 0 mm 2 mps 769 mmHg 91%
    06:00 +3°C° 0 mm 2 mps 769 mmHg 91%
    07:00 +3°C° 0 mm 2 mps 769 mmHg 91%
    08:00 +6°C° 0 mm 1 mps 769 mmHg 82%
    09:00 +9°C° 0 mm 1 mps 768 mmHg 72%
    10:00 +11°C° 0 mm 1 mps 768 mmHg 62%
    11:00 +12°C° 0 mm 1 mps 768 mmHg 56%
    12:00 +13°C° 0 mm 1 mps 767 mmHg 49%
    13:00 +14°C° 0 mm 1 mps 766 mmHg 42%
    14:00 +14°C° 0 mm 1 mps 765 mmHg 44%
    15:00 +14°C° 0 mm 1 mps 765 mmHg 45%
    16:00 +13°C° 0 mm 1 mps 764 mmHg 46%
    17:00 +12°C° 0 mm 1 mps 764 mmHg 54%
    18:00 +9°C° 0 mm 2 mps 764 mmHg 62%
    19:00 +7°C° 0 mm 2 mps 764 mmHg 70%
    20:00 +7°C° 0 mm 2 mps 764 mmHg 72%
    21:00 +7°C° 0 mm 2 mps 764 mmHg 74%
    22:00 +7°C° 0 mm 2 mps 764 mmHg 76%
    23:00 +6°C° 0 mm 2 mps 763 mmHg 76%

    Day after tomorrow, 21 August, Monday

    Time Temperature Precipitation Wind Pressure Humidity
    00:00 +6°C° 0 mm 2 mps 763 mmHg 76%
    01:00 +5°C° 0 mm 3 mps 763 mmHg 75%
    02:00 +7°C° 0 mm 3 mps 762 mmHg 75%
    03:00 +7°C° 0 mm 3 mps 762 mmHg 75%
    04:00 +7°C° 0 mm 3 mps 761 mmHg 75%
    05:00 +6°C° 0.2 mm 4 mps 761 mmHg 79%
    06:00 +5°C° 0.2 mm 4 mps 761 mmHg 84%
    07:00 +5°C° 0.2 mm 4 mps 761 mmHg 88%
    08:00 +5°C° 0.6 mm 4 mps 760 mmHg 89%
    09:00 +6°C° 0.6 mm 4 mps 760 mmHg 90%
    10:00 +6°C° 0.6 mm 4 mps 760 mmHg 91%
    11:00 +7°C° 0.3 mm 5 mps 760 mmHg 88%
    12:00 +7°C° 0.3 mm 5 mps 759 mmHg 86%
    13:00 +8°C° 0.3 mm 5 mps 759 mmHg 84%
    14:00 +8°C° 0 mm 5 mps 758 mmHg 81%
    15:00 +9°C° 0 mm 5 mps 758 mmHg 78%
    16:00 +9°C° 0 mm 5 mps 758 mmHg 75%
    17:00 +8°C° 0 mm 4 mps 758 mmHg 78%
    18:00 +8°C° 0 mm 4 mps 759 mmHg 81%
    19:00 +8°C° 0 mm 3 mps 759 mmHg 84%
    20:00 +7°C° 0 mm 3 mps 759 mmHg 87%
    21:00 +7°C° 0 mm 2 mps 760 mmHg 90%
    22:00 +6°C° 0 mm 2 mps 760 mmHg 93%
    23:00 +6°C° 0 mm 2 mps 760 mmHg 93%

    22 August, Tuesday

    Time Temperature Precipitation Wind Pressure Humidity
    00:00 +6°C° 0 mm 2 mps 760 mmHg 93%
    01:00 +5°C° 0 mm 2 mps 760 mmHg 93%
    02:00 +5°C° 0 mm 2 mps 760 mmHg 93%
    03:00 +6°C° 0 mm 1 mps 760 mmHg 93%
    04:00 +6°C° 0 mm 1 mps 760 mmHg 93%
    05:00 +6°C° 0 mm 1 mps 760 mmHg 92%
    06:00 +6°C° 0 mm 1 mps 761 mmHg 92%
    07:00 +6°C° 0 mm 1 mps 761 mmHg 92%
    08:00 +8°C° 0 mm 1 mps 761 mmHg 83%
    09:00 +10°C° 0 mm 2 mps 761 mmHg 73%
    10:00 +13°C° 0 mm 2 mps 761 mmHg 64%
    11:00 +14°C° 0 mm 2 mps 761 mmHg 62%
    12:00 +16°C° 0 mm 2 mps 761 mmHg 59%
    13:00 +17°C° 0 mm 2 mps 761 mmHg 57%
    14:00 +16°C° 0.1 mm 2 mps 761 mmHg 63%
    15:00 +16°C° 0.1 mm 2 mps 761 mmHg 68%
    16:00 +15°C° 0.1 mm 1 mps 761 mmHg 74%
    17:00 +14°C° 0.2 mm 1 mps 761 mmHg 80%
    18:00 +13°C° 0.2 mm 1 mps 762 mmHg 85%
    19:00 +12°C° 0.2 mm 1 mps 763 mmHg 91%
    20:00 +11°C° 0 mm 1 mps 763 mmHg 92%
    21:00 +10°C° 0 mm 1 mps 763 mmHg 93%
    22:00 +9°C° 0 mm 2 mps 764 mmHg 94%
    23:00 +8°C° 0 mm 2 mps 764 mmHg 94%

    23 August, Wednesday

    Time Temperature Precipitation Wind Pressure Humidity
    00:00 +8°C° 0 mm 2 mps 763 mmHg 94%
    01:00 +8°C° 0 mm 2 mps 763 mmHg 94%
    02:00 +8°C° 0 mm 2 mps 763 mmHg 94%
    03:00 +8°C° 0 mm 2 mps 763 mmHg 95%
    04:00 +8°C° 0 mm 2 mps 763 mmHg 95%
    05:00 +7°C° 0 mm 2 mps 763 mmHg 95%
    06:00 +7°C° 0 mm 2 mps 764 mmHg 94%
    07:00 +7°C° 0 mm 2 mps 764 mmHg 94%
    08:00 +9°C° 0 mm 3 mps 764 mmHg 90%
    09:00 +11°C° 0 mm 3 mps 764 mmHg 85%
    10:00 +12°C° 0 mm 3 mps 764 mmHg 80%
    11:00 +13°C° 0.2 mm 4 mps 764 mmHg 80%
    12:00 +13°C° 0.2 mm 4 mps 764 mmHg 80%
    13:00 +13°C° 0.2 mm 4 mps 764 mmHg 81%
    14:00 +13°C° 0.3 mm 4 mps 764 mmHg 78%
    15:00 +13°C° 0.3 mm 4 mps 765 mmHg 76%
    16:00 +13°C° 0.3 mm 4 mps 765 mmHg 74%
    17:00 +11°C° 0.1 mm 3 mps 765 mmHg 79%
    18:00 +10°C° 0.1 mm 3 mps 766 mmHg 83%
    19:00 +8°C° 0.1 mm 2 mps 767 mmHg 88%
    20:00 +7°C° 0 mm 2 mps 767 mmHg 89%
    21:00 +7°C° 0 mm 2 mps 768 mmHg 90%
    22:00 +7°C° 0 mm 1 mps 768 mmHg 91%
    23:00 +6°C° 0 mm 2 mps 768 mmHg 92%

    24 August, Thursday

    Time Temperature Precipitation Wind Pressure Humidity
    00:00 +6°C° 0 mm 2 mps 768 mmHg 92%
    01:00 +5°C° 0 mm 2 mps 768 mmHg 93%
    02:00 +5°C° 0 mm 2 mps 768 mmHg 93%
    03:00 +5°C° 0 mm 2 mps 768 mmHg 94%
    04:00 +5°C° 0 mm 2 mps 768 mmHg 94%
    05:00 +5°C° 0 mm 2 mps 769 mmHg 94%
    06:00 +5°C° 0 mm 2 mps 769 mmHg 94%
    07:00 +4°C° 0 mm 2 mps 769 mmHg 94%
    08:00 +7°C° 0 mm 2 mps 769 mmHg 87%
    09:00 +9°C° 0 mm 2 mps 769 mmHg 80%
    10:00 +12°C° 0 mm 2 mps 769 mmHg 72%
    11:00 +13°C° 0 mm 2 mps 769 mmHg 66%
    12:00 +14°C° 0 mm 2 mps 768 mmHg 60%
    13:00 +16°C° 0 mm 2 mps 768 mmHg 53%
    14:00 +15°C° 0 mm 2 mps 768 mmHg 56%
    15:00 +15°C° 0 mm 2 mps 768 mmHg 58%
    16:00 +15°C° 0 mm 1 mps 768 mmHg 60%
    17:00 +13°C° 0 mm 1 mps 768 mmHg 67%
    18:00 +12°C° 0 mm 1 mps 768 mmHg 75%
    19:00 +9°C° 0 mm 0 mps 769 mmHg 82%
    20:00 +9°C° 0 mm 1 mps 769 mmHg 85%
    21:00 +9°C° 0 mm 1 mps 769 mmHg 87%
    22:00 +8°C° 0 mm 1 mps 769 mmHg 90%
    23:00 +8°C° 0 mm 1 mps 769 mmHg 91%
    Show more